Time,TemperatureF,DewpointF,PressureIn,WindDirection,WindDirectionDegrees,WindSpeedMPH,WindSpeedGustMPH,Humidity,HourlyPrecipIn,Conditions,Clouds,dailyrainin,SoftwareType,DateUTC
2013-06-24 00:00:00,71.0,68.9,30.03,NNE,22,0.0,4.0,93,0.00,,,0.00,Weather View 32 v70,2013-06-24 04:00:00,
2013-06-24 00:01:00,71.0,69.2,30.03,NNE,22,0.0,4.0,94,0.00,,,0.00,Weather View 32 v70,2013-06-24 04:01:00,
2013-06-24 00:02:00,71.0,69.2,30.03,NNE,22,0.0,4.0,94,0.00,,,0.00,Weather View 32 v70,2013-06-24 04:02:00,
2013-06-24 00:07:00,71.0,69.5,30.03,NNE,22,0.0,4.0,95,0.00,,,0.00,Weather View 32 v70,2013-06-24 04:07:00,
2013-06-24 00:12:00,71.0,69.5,30.03,NNE,22,0.0,4.0,95,0.00,,,0.00,Weather View 32 v70,2013-06-24 04:12:00,
2013-06-24 00:17:00,71.0,69.5,30.03,NE,45,2.0,5.0,95,0.00,,,0.00,Weather View 32 v70,2013-06-24 04:17:00,
2013-06-24 00:22:00,71.0,69.5,30.03,NE,45,0.0,5.0,95,0.00,,,0.00,Weather View 32 v70,2013-06-24 04:22:00,
2013-06-24 00:27:00,71.0,69.8,30.03,ENE,67,1.0,5.0,96,0.00,,,0.00,Weather View 32 v70,2013-06-24 04:27:00,
2013-06-24 00:32:00,71.0,69.8,30.02,ENE,67,0.0,5.0,96,0.00,,,0.00,Weather View 32 v70,2013-06-24 04:32:00,
2013-06-24 00:37:00,71.0,69.8,30.02,ENE,67,0.0,5.0,96,0.00,,,0.00,Weather View 32 v70,2013-06-24 04:37:00,
2013-06-24 00:42:00,70.0,68.8,30.02,ENE,67,0.0,5.0,96,0.00,,,0.00,Weather View 32 v70,2013-06-24 04:42:00,
2013-06-24 00:47:00,70.0,68.8,30.02,ENE,67,0.0,5.0,96,0.00,,,0.00,Weather View 32 v70,2013-06-24 04:47:00,
2013-06-24 00:52:00,70.0,68.8,30.01,ENE,67,0.0,5.0,96,0.00,,,0.00,Weather View 32 v70,2013-06-24 04:52:00,
2013-06-24 00:57:00,70.0,69.1,30.01,ENE,67,1.0,5.0,97,0.00,,,0.00,Weather View 32 v70,2013-06-24 04:57:00,
2013-06-24 01:02:00,70.0,69.1,30.02,ENE,67,0.0,5.0,97,0.00,,,0.00,Weather View 32 v70,2013-06-24 05:02:00,
2013-06-24 01:07:00,70.0,69.1,30.02,ENE,67,0.0,5.0,97,0.00,,,0.00,Weather View 32 v70,2013-06-24 05:07:00,
2013-06-24 01:12:00,70.0,69.1,30.02,ENE,67,0.0,5.0,97,0.00,,,0.00,Weather View 32 v70,2013-06-24 05:12:00,
2013-06-24 01:17:00,70.0,68.8,30.02,NE,45,0.0,4.0,96,0.00,,,0.00,Weather View 32 v70,2013-06-24 05:17:00,
2013-06-24 01:22:00,70.0,68.8,30.02,NE,45,0.0,4.0,96,0.00,,,0.00,Weather View 32 v70,2013-06-24 05:22:00,
2013-06-24 01:27:00,70.0,69.1,30.02,NE,45,2.0,4.0,97,0.00,,,0.00,Weather View 32 v70,2013-06-24 05:27:00,
2013-06-24 01:32:00,70.0,69.1,30.02,NE,45,1.0,4.0,97,0.00,,,0.00,Weather View 32 v70,2013-06-24 05:32:00,
2013-06-24 01:37:00,70.0,69.1,30.02,ESE,112,0.0,4.0,97,0.00,,,0.00,Weather View 32 v70,2013-06-24 05:37:00,
2013-06-24 01:43:00,70.0,69.1,30.02,ESE,112,0.0,4.0,97,0.00,,,0.00,Weather View 32 v70,2013-06-24 05:43:00,
2013-06-24 01:48:00,70.0,69.1,30.02,ESE,112,0.0,4.0,97,0.00,,,0.00,Weather View 32 v70,2013-06-24 05:48:00,
2013-06-24 01:53:00,70.0,68.8,30.01,ESE,112,0.0,4.0,96,0.00,,,0.00,Weather View 32 v70,2013-06-24 05:53:00,
2013-06-24 01:58:00,70.0,69.1,30.01,ESE,112,0.0,4.0,97,0.00,,,0.00,Weather View 32 v70,2013-06-24 05:58:00,
2013-06-24 02:03:00,70.0,68.8,30.01,ESE,112,0.0,3.0,96,0.00,,,0.00,Weather View 32 v70,2013-06-24 06:03:00,
2013-06-24 02:09:00,70.0,68.8,30.01,ESE,112,0.0,3.0,96,0.00,,,0.00,Weather View 32 v70,2013-06-24 06:09:00,
2013-06-24 02:15:00,70.0,69.1,30.01,ESE,112,0.0,3.0,97,0.00,,,0.00,Weather View 32 v70,2013-06-24 06:15:00,
2013-06-24 02:20:00,70.0,68.2,30.01,ESE,112,0.0,3.0,94,0.00,,,0.00,Weather View 32 v70,2013-06-24 06:20:00,
2013-06-24 02:25:00,70.0,69.1,30.01,ESE,112,0.0,3.0,97,0.00,,,0.00,Weather View 32 v70,2013-06-24 06:25:00,
2013-06-24 02:30:00,70.0,68.2,30.00,ESE,112,0.0,3.0,94,0.00,,,0.00,Weather View 32 v70,2013-06-24 06:30:00,
2013-06-24 02:35:00,70.0,69.1,30.00,ESE,112,0.0,2.0,97,0.00,,,0.00,Weather View 32 v70,2013-06-24 06:35:00,
2013-06-24 02:40:00,70.0,69.1,29.99,ESE,112,0.0,2.0,97,0.00,,,0.00,Weather View 32 v70,2013-06-24 06:40:00,
2013-06-24 02:46:00,70.0,69.1,29.99,ESE,112,0.0,1.0,97,0.00,,,0.00,Weather View 32 v70,2013-06-24 06:46:00,
2013-06-24 02:51:00,70.0,69.1,30.00,ESE,112,0.0,1.0,97,0.00,,,0.00,Weather View 32 v70,2013-06-24 06:51:00,
2013-06-24 02:56:00,70.0,69.1,30.00,ESE,112,0.0,1.0,97,0.00,,,0.00,Weather View 32 v70,2013-06-24 06:56:00,
2013-06-24 03:01:00,70.0,68.8,29.99,ESE,112,0.0,1.0,96,0.00,,,0.00,Weather View 32 v70,2013-06-24 07:01:00,
2013-06-24 03:07:00,70.0,69.1,29.99,ESE,112,0.0,1.0,97,0.00,,,0.00,Weather View 32 v70,2013-06-24 07:07:00,
2013-06-24 03:12:00,71.0,70.1,29.99,ESE,112,0.0,1.0,97,0.00,,,0.00,Weather View 32 v70,2013-06-24 07:12:00,
2013-06-24 03:17:00,70.0,68.8,29.99,ESE,112,0.0,1.0,96,0.00,,,0.00,Weather View 32 v70,2013-06-24 07:17:00,
2013-06-24 03:22:00,70.0,68.8,29.99,ESE,112,0.0,1.0,96,0.00,,,0.00,Weather View 32 v70,2013-06-24 07:22:00,
2013-06-24 03:27:00,70.0,68.8,29.99,ESE,112,0.0,1.0,96,0.00,,,0.00,Weather View 32 v70,2013-06-24 07:27:00,
2013-06-24 03:32:00,70.0,68.8,29.99,ESE,112,0.0,1.0,96,0.00,,,0.00,Weather View 32 v70,2013-06-24 07:32:00,
2013-06-24 03:37:00,70.0,68.8,29.99,ESE,112,0.0,1.0,96,0.00,,,0.00,Weather View 32 v70,2013-06-24 07:37:00,
2013-06-24 03:42:00,70.0,69.1,29.99,ESE,112,0.0,1.0,97,0.00,,,0.00,Weather View 32 v70,2013-06-24 07:42:00,
2013-06-24 03:48:00,70.0,68.8,29.99,ESE,112,0.0,0.0,96,0.00,,,0.00,Weather View 32 v70,2013-06-24 07:48:00,
2013-06-24 03:53:00,70.0,68.8,29.98,ESE,112,0.0,0.0,96,0.00,,,0.00,Weather View 32 v70,2013-06-24 07:53:00,
2013-06-24 03:58:00,71.0,70.1,29.98,ESE,112,1.0,2.0,97,0.00,,,0.00,Weather View 32 v70,2013-06-24 07:58:00,
2013-06-24 04:03:00,71.0,69.8,29.98,ESE,112,0.0,2.0,96,0.00,,,0.00,Weather View 32 v70,2013-06-24 08:03:00,
2013-06-24 04:08:00,71.0,69.8,29.98,ESE,112,0.0,2.0,96,0.00,,,0.00,Weather View 32 v70,2013-06-24 08:08:00,
2013-06-24 04:13:00,71.0,69.8,29.98,ESE,112,0.0,2.0,96,0.00,,,0.00,Weather View 32 v70,2013-06-24 08:13:00,
2013-06-24 04:18:00,70.0,68.8,29.98,ESE,112,0.0,2.0,96,0.00,,,0.00,Weather View 32 v70,2013-06-24 08:18:00,
2013-06-24 04:23:00,71.0,69.8,29.99,SSW,202,3.0,3.0,96,0.00,,,0.00,Weather View 32 v70,2013-06-24 08:23:00,
2013-06-24 04:29:00,71.0,69.8,29.99,SSW,202,0.0,4.0,96,0.00,,,0.00,Weather View 32 v70,2013-06-24 08:29:00,
2013-06-24 04:34:00,71.0,69.8,29.98,SSW,202,0.0,4.0,96,0.00,,,0.00,Weather View 32 v70,2013-06-24 08:34:00,
2013-06-24 04:39:00,71.0,69.8,29.98,SSW,202,0.0,4.0,96,0.00,,,0.00,Weather View 32 v70,2013-06-24 08:39:00,
2013-06-24 04:44:00,71.0,69.8,29.98,SSW,202,0.0,4.0,96,0.00,,,0.00,Weather View 32 v70,2013-06-24 08:44:00,
2013-06-24 04:49:00,71.0,69.2,29.98,SSW,202,0.0,4.0,94,0.00,,,0.00,Weather View 32 v70,2013-06-24 08:49:00,
2013-06-24 04:54:00,71.0,69.8,29.98,SSW,202,0.0,4.0,96,0.00,,,0.00,Weather View 32 v70,2013-06-24 08:54:00,
2013-06-24 04:59:00,71.0,69.2,29.98,SSW,202,0.0,4.0,94,0.00,,,0.00,Weather View 32 v70,2013-06-24 08:59:00,
2013-06-24 05:04:00,71.0,69.8,29.98,SSW,202,0.0,4.0,96,0.00,,,0.00,Weather View 32 v70,2013-06-24 09:04:00,
2013-06-24 05:10:00,71.0,69.2,29.98,SSW,202,0.0,4.0,94,0.00,,,0.00,Weather View 32 v70,2013-06-24 09:10:00,
2013-06-24 05:15:00,70.0,68.8,29.98,SSW,202,0.0,4.0,96,0.00,,,0.00,Weather View 32 v70,2013-06-24 09:15:00,
2013-06-24 05:20:00,71.0,69.2,29.98,SSW,202,0.0,4.0,94,0.00,,,0.00,Weather View 32 v70,2013-06-24 09:20:00,
2013-06-24 05:25:00,70.0,68.8,29.98,SSW,202,0.0,4.0,96,0.00,,,0.00,Weather View 32 v70,2013-06-24 09:25:00,
2013-06-24 05:30:00,70.0,68.2,29.99,SSW,202,0.0,3.0,94,0.00,,,0.00,Weather View 32 v70,2013-06-24 09:30:00,
2013-06-24 05:35:00,70.0,68.8,29.99,SSW,202,0.0,3.0,96,0.00,,,0.00,Weather View 32 v70,2013-06-24 09:35:00,
2013-06-24 05:40:00,70.0,68.8,29.99,SSW,202,0.0,3.0,96,0.00,,,0.00,Weather View 32 v70,2013-06-24 09:40:00,
2013-06-24 05:46:00,70.0,69.1,29.99,SSW,202,0.0,3.0,97,0.00,,,0.00,Weather View 32 v70,2013-06-24 09:46:00,
2013-06-24 05:51:00,70.0,69.1,29.99,SSW,202,0.0,3.0,97,0.00,,,0.00,Weather View 32 v70,2013-06-24 09:51:00,
2013-06-24 05:56:00,70.0,69.1,29.99,SSW,202,0.0,1.0,97,0.00,,,0.00,Weather View 32 v70,2013-06-24 09:56:00,
2013-06-24 06:01:00,70.0,69.1,29.99,SSW,202,0.0,1.0,97,0.00,,,0.00,Weather View 32 v70,2013-06-24 10:01:00,
2013-06-24 06:06:00,70.0,69.1,29.99,SSW,202,0.0,1.0,97,0.00,,,0.00,Weather View 32 v70,2013-06-24 10:06:00,
2013-06-24 06:11:00,70.0,68.8,29.99,SSW,202,0.0,1.0,96,0.00,,,0.00,Weather View 32 v70,2013-06-24 10:11:00,
2013-06-24 06:16:00,70.0,69.1,29.99,SSW,202,0.0,1.0,97,0.00,,,0.00,Weather View 32 v70,2013-06-24 10:16:00,
2013-06-24 06:22:00,70.0,69.1,29.99,SSW,202,0.0,1.0,97,0.00,,,0.00,Weather View 32 v70,2013-06-24 10:22:00,
2013-06-24 06:27:00,70.0,69.1,29.99,SSW,202,0.0,1.0,97,0.00,,,0.00,Weather View 32 v70,2013-06-24 10:27:00,
2013-06-24 06:32:00,71.0,70.1,29.98,SSW,202,0.0,1.0,97,0.00,,,0.00,Weather View 32 v70,2013-06-24 10:32:00,
2013-06-24 06:37:00,71.0,70.1,29.98,SSW,202,0.0,1.0,97,0.00,,,0.00,Weather View 32 v70,2013-06-24 10:37:00,
2013-06-24 06:42:00,71.0,69.8,29.98,SSW,202,0.0,1.0,96,0.00,,,0.00,Weather View 32 v70,2013-06-24 10:42:00,
2013-06-24 06:47:00,72.0,71.1,29.98,SSW,202,0.0,0.0,97,0.00,,,0.00,Weather View 32 v70,2013-06-24 10:47:00,
2013-06-24 06:52:00,72.0,71.1,29.98,SSW,202,1.0,0.0,97,0.00,,,0.00,Weather View 32 v70,2013-06-24 10:52:00,
2013-06-24 06:57:00,72.0,70.8,29.98,SSW,202,0.0,2.0,96,0.00,,,0.00,Weather View 32 v70,2013-06-24 10:57:00,
2013-06-24 07:02:00,72.0,70.5,29.98,SSW,202,0.0,2.0,95,0.00,,,0.00,Weather View 32 v70,2013-06-24 11:02:00,
2013-06-24 07:07:00,73.0,71.2,29.98,SSW,202,0.0,2.0,94,0.00,,,0.00,Weather View 32 v70,2013-06-24 11:07:00,
2013-06-24 07:13:00,73.0,70.8,29.98,SSW,202,0.0,2.0,93,0.00,,,0.00,Weather View 32 v70,2013-06-24 11:13:00,
2013-06-24 07:18:00,74.0,71.2,29.98,SSW,202,0.0,2.0,91,0.00,,,0.00,Weather View 32 v70,2013-06-24 11:18:00,
2013-06-24 07:23:00,74.0,70.9,29.97,NW,315,0.0,4.0,90,0.00,,,0.00,Weather View 32 v70,2013-06-24 11:23:00,
2013-06-24 07:28:00,75.0,71.5,29.97,NW,315,0.0,4.0,89,0.00,,,0.00,Weather View 32 v70,2013-06-24 11:28:00,
2013-06-24 07:34:00,75.0,70.8,29.97,West,270,3.0,4.0,87,0.00,,,0.00,Weather View 32 v70,2013-06-24 11:34:00,
2013-06-24 07:39:00,76.0,71.1,29.97,SSW,202,1.0,5.0,85,0.00,,,0.00,Weather View 32 v70,2013-06-24 11:39:00,
2013-06-24 07:44:00,76.0,71.8,29.97,SSW,202,0.0,5.0,87,0.00,,,0.00,Weather View 32 v70,2013-06-24 11:44:00,
2013-06-24 07:50:00,76.0,71.1,29.97,SW,225,1.0,8.0,85,0.00,,,0.00,Weather View 32 v70,2013-06-24 11:50:00,
2013-06-24 07:55:00,76.0,71.8,29.97,SW,225,0.0,8.0,87,0.00,,,0.00,Weather View 32 v70,2013-06-24 11:55:00,
2013-06-24 08:00:00,76.0,71.5,29.97,WSW,247,0.0,8.0,86,0.00,,,0.00,Weather View 32 v70,2013-06-24 12:00:00,
2013-06-24 08:05:00,76.0,71.5,29.97,WSW,247,1.0,8.0,86,0.00,,,0.00,Weather View 32 v70,2013-06-24 12:05:00,
2013-06-24 08:10:00,77.0,72.1,29.96,WSW,247,2.0,8.0,85,0.00,,,0.00,Weather View 32 v70,2013-06-24 12:10:00,
2013-06-24 08:16:00,77.0,72.5,29.96,SW,225,0.0,8.0,86,0.00,,,0.00,Weather View 32 v70,2013-06-24 12:16:00,
2013-06-24 08:21:00,77.0,72.1,29.96,NNW,337,0.0,8.0,85,0.00,,,0.00,Weather View 32 v70,2013-06-24 12:21:00,
2013-06-24 08:26:00,77.0,71.8,29.96,West,270,0.0,8.0,84,0.00,,,0.00,Weather View 32 v70,2013-06-24 12:26:00,
2013-06-24 08:31:00,78.0,72.4,29.96,WSW,247,4.0,8.0,83,0.00,,,0.00,Weather View 32 v70,2013-06-24 12:31:00,
2013-06-24 08:36:00,78.0,72.0,29.96,WNW,292,1.0,8.0,82,0.00,,,0.00,Weather View 32 v70,2013-06-24 12:36:00,
2013-06-24 08:42:00,78.0,72.0,29.96,West,270,2.0,8.0,82,0.00,,,0.00,Weather View 32 v70,2013-06-24 12:42:00,
2013-06-24 08:47:00,78.0,72.0,29.96,SW,225,1.0,8.0,82,0.00,,,0.00,Weather View 32 v70,2013-06-24 12:47:00,
2013-06-24 08:52:00,78.0,71.3,29.96,West,270,6.0,12.0,80,0.00,,,0.00,Weather View 32 v70,2013-06-24 12:52:00,
2013-06-24 08:57:00,78.0,70.9,29.96,WNW,292,0.0,12.0,79,0.00,,,0.00,Weather View 32 v70,2013-06-24 12:57:00,
2013-06-24 09:02:00,79.0,71.9,29.95,West,270,2.0,12.0,79,0.00,,,0.00,Weather View 32 v70,2013-06-24 13:02:00,
2013-06-24 09:07:00,79.0,71.9,29.95,West,270,0.0,12.0,79,0.00,,,0.00,Weather View 32 v70,2013-06-24 13:07:00,
2013-06-24 09:13:00,79.0,71.5,29.95,WSW,247,2.0,12.0,78,0.00,,,0.00,Weather View 32 v70,2013-06-24 13:13:00,
2013-06-24 09:18:00,79.0,70.8,29.95,West,270,6.0,12.0,76,0.00,,,0.00,Weather View 32 v70,2013-06-24 13:18:00,
2013-06-24 09:23:00,80.0,71.3,29.95,WNW,292,0.0,12.0,75,0.00,,,0.00,Weather View 32 v70,2013-06-24 13:23:00,
2013-06-24 09:28:00,80.0,71.7,29.95,West,270,3.0,12.0,76,0.00,,,0.00,Weather View 32 v70,2013-06-24 13:28:00,
2013-06-24 09:34:00,81.0,71.9,29.95,SW,225,0.0,12.0,74,0.00,,,0.00,Weather View 32 v70,2013-06-24 13:34:00,
2013-06-24 09:39:00,81.0,71.5,29.95,North,360,2.0,12.0,73,0.00,,,0.00,Weather View 32 v70,2013-06-24 13:39:00,
2013-06-24 09:44:00,81.0,71.1,29.94,NNW,337,0.0,12.0,72,0.00,,,0.00,Weather View 32 v70,2013-06-24 13:44:00,
2013-06-24 09:49:00,81.0,71.1,29.94,NNW,337,0.0,12.0,72,0.00,,,0.00,Weather View 32 v70,2013-06-24 13:49:00,
2013-06-24 09:54:00,82.0,71.6,29.93,North,360,0.0,12.0,71,0.00,,,0.00,Weather View 32 v70,2013-06-24 13:54:00,
2013-06-24 09:59:00,82.0,71.2,29.93,SW,225,1.0,12.0,70,0.00,,,0.00,Weather View 32 v70,2013-06-24 13:59:00,
2013-06-24 10:04:00,82.0,71.6,29.93,SW,225,1.0,12.0,71,0.00,,,0.00,Weather View 32 v70,2013-06-24 14:04:00,
2013-06-24 10:09:00,82.0,71.2,29.93,NW,315,0.0,12.0,70,0.00,,,0.00,Weather View 32 v70,2013-06-24 14:09:00,
2013-06-24 10:14:00,82.0,71.6,29.93,NW,315,1.0,12.0,71,0.00,,,0.00,Weather View 32 v70,2013-06-24 14:14:00,
2013-06-24 10:19:00,83.0,70.9,29.92,North,360,3.0,10.0,67,0.00,,,0.00,Weather View 32 v70,2013-06-24 14:19:00,
2013-06-24 10:24:00,83.0,70.9,29.92,SW,225,1.0,10.0,67,0.00,,,0.00,Weather View 32 v70,2013-06-24 14:24:00,
2013-06-24 10:30:00,83.0,70.0,29.92,West,270,3.0,10.0,65,0.00,,,0.00,Weather View 32 v70,2013-06-24 14:30:00,
2013-06-24 10:35:00,83.0,70.9,29.92,SSW,202,3.0,10.0,67,0.00,,,0.00,Weather View 32 v70,2013-06-24 14:35:00,
2013-06-24 10:40:00,84.0,70.0,29.91,North,360,3.0,12.0,63,0.00,,,0.00,Weather View 32 v70,2013-06-24 14:40:00,
2013-06-24 10:45:00,84.0,70.0,29.91,NW,315,5.0,12.0,63,0.00,,,0.00,Weather View 32 v70,2013-06-24 14:45:00,
2013-06-24 10:50:00,84.0,69.0,29.91,West,270,0.0,15.0,61,0.00,,,0.00,Weather View 32 v70,2013-06-24 14:50:00,
2013-06-24 10:55:00,84.0,69.0,29.91,North,360,2.0,15.0,61,0.00,,,0.00,Weather View 32 v70,2013-06-24 14:55:00,
2013-06-24 11:00:00,84.0,69.5,29.91,NNW,337,3.0,15.0,62,0.00,,,0.00,Weather View 32 v70,2013-06-24 15:00:00,
2013-06-24 11:05:00,84.0,69.5,29.91,WNW,292,10.0,15.0,62,0.00,,,0.00,Weather View 32 v70,2013-06-24 15:05:00,
2013-06-24 11:10:00,85.0,71.4,29.91,NW,315,1.0,15.0,64,0.00,,,0.00,Weather View 32 v70,2013-06-24 15:10:00,
2013-06-24 11:15:00,85.0,70.0,29.91,SW,225,1.0,15.0,61,0.00,,,0.00,Weather View 32 v70,2013-06-24 15:15:00,
2013-06-24 11:20:00,85.0,69.5,29.91,WNW,292,2.0,15.0,60,0.00,,,0.00,Weather View 32 v70,2013-06-24 15:20:00,
2013-06-24 11:26:00,86.0,69.9,29.91,West,270,3.0,15.0,59,0.00,,,0.00,Weather View 32 v70,2013-06-24 15:26:00,
2013-06-24 11:31:00,86.0,69.9,29.90,WNW,292,5.0,15.0,59,0.00,,,0.00,Weather View 32 v70,2013-06-24 15:31:00,
2013-06-24 11:36:00,87.0,69.3,29.90,NNW,337,3.0,15.0,56,0.00,,,0.00,Weather View 32 v70,2013-06-24 15:36:00,
2013-06-24 11:42:00,87.0,68.8,29.89,NE,45,7.0,15.0,55,0.00,,,0.00,Weather View 32 v70,2013-06-24 15:42:00,
2013-06-24 11:47:00,87.0,68.3,29.89,SW,225,1.0,13.0,54,0.00,,,0.00,Weather View 32 v70,2013-06-24 15:47:00,
2013-06-24 11:53:00,88.0,71.3,29.89,North,360,2.0,13.0,58,0.00,,,0.00,Weather View 32 v70,2013-06-24 15:53:00,
2013-06-24 11:58:00,88.0,69.7,29.89,West,270,2.0,13.0,55,0.00,,,0.00,Weather View 32 v70,2013-06-24 15:58:00,
2013-06-24 12:03:00,88.0,70.8,29.89,NNW,337,6.0,13.0,57,0.00,,,0.00,Weather View 32 v70,2013-06-24 16:03:00,
2013-06-24 12:08:00,87.0,69.3,29.89,SW,225,3.0,13.0,56,0.00,,,0.00,Weather View 32 v70,2013-06-24 16:08:00,
2013-06-24 12:13:00,88.0,70.8,29.89,WSW,247,3.0,11.0,57,0.00,,,0.00,Weather View 32 v70,2013-06-24 16:13:00,
2013-06-24 12:19:00,88.0,70.3,29.89,West,270,11.0,11.0,56,0.00,,,0.00,Weather View 32 v70,2013-06-24 16:19:00,
2013-06-24 12:24:00,87.0,68.3,29.89,ENE,67,1.0,11.0,54,0.00,,,0.00,Weather View 32 v70,2013-06-24 16:24:00,
2013-06-24 12:29:00,88.0,69.2,29.89,NNE,22,7.0,11.0,54,0.00,,,0.00,Weather View 32 v70,2013-06-24 16:29:00,
2013-06-24 12:34:00,89.0,70.1,29.89,WSW,247,3.0,11.0,54,0.00,,,0.00,Weather View 32 v70,2013-06-24 16:34:00,
2013-06-24 12:39:00,89.0,69.0,29.89,West,270,1.0,11.0,52,0.00,,,0.00,Weather View 32 v70,2013-06-24 16:39:00,
2013-06-24 12:44:00,89.0,69.0,29.88,West,270,4.0,11.0,52,0.00,,,0.00,Weather View 32 v70,2013-06-24 16:44:00,
2013-06-24 12:49:00,89.0,70.1,29.88,NW,315,0.0,11.0,54,0.00,,,0.00,Weather View 32 v70,2013-06-24 16:49:00,
2013-06-24 12:55:00,89.0,69.0,29.87,North,360,3.0,11.0,52,0.00,,,0.00,Weather View 32 v70,2013-06-24 16:55:00,
2013-06-24 13:00:00,90.0,71.0,29.87,SW,225,1.0,11.0,54,0.00,,,0.00,Weather View 32 v70,2013-06-24 17:00:00,
2013-06-24 13:05:00,90.0,69.9,29.87,WNW,292,1.0,11.0,52,0.00,,,0.00,Weather View 32 v70,2013-06-24 17:05:00,
2013-06-24 13:11:00,90.0,68.8,29.86,NW,315,4.0,11.0,50,0.00,,,0.00,Weather View 32 v70,2013-06-24 17:11:00,
2013-06-24 13:17:00,91.0,69.7,29.86,West,270,1.0,11.0,50,0.00,,,0.00,Weather View 32 v70,2013-06-24 17:17:00,
2013-06-24 13:23:00,91.0,70.3,29.86,WSW,247,1.0,11.0,51,0.00,,,0.00,Weather View 32 v70,2013-06-24 17:23:00,
2013-06-24 13:28:00,91.0,68.5,29.86,WNW,292,4.0,11.0,48,0.00,,,0.00,Weather View 32 v70,2013-06-24 17:28:00,
2013-06-24 13:33:00,91.0,69.7,29.86,South,180,4.0,12.0,50,0.00,,,0.00,Weather View 32 v70,2013-06-24 17:33:00,
2013-06-24 13:38:00,91.0,67.9,29.86,NW,315,5.0,13.0,47,0.00,,,0.00,Weather View 32 v70,2013-06-24 17:38:00,
2013-06-24 13:44:00,91.0,70.8,29.85,WSW,247,0.0,13.0,52,0.00,,,0.00,Weather View 32 v70,2013-06-24 17:44:00,
2013-06-24 13:49:00,91.0,70.8,29.85,West,270,2.0,13.0,52,0.00,,,0.00,Weather View 32 v70,2013-06-24 17:49:00,
2013-06-24 13:54:00,91.0,69.7,29.85,West,270,7.0,13.0,50,0.00,,,0.00,Weather View 32 v70,2013-06-24 17:54:00,
2013-06-24 13:59:00,91.0,67.9,29.85,NW,315,6.0,13.0,47,0.00,,,0.00,Weather View 32 v70,2013-06-24 17:59:00,
2013-06-24 14:05:00,92.0,68.2,29.85,West,270,3.0,13.0,46,0.00,,,0.00,Weather View 32 v70,2013-06-24 18:05:00,
2013-06-24 14:10:00,91.0,67.9,29.85,NW,315,1.0,13.0,47,0.00,,,0.00,Weather View 32 v70,2013-06-24 18:10:00,
2013-06-24 14:15:00,91.0,69.7,29.85,North,360,0.0,13.0,50,0.00,,,0.00,Weather View 32 v70,2013-06-24 18:15:00,
2013-06-24 16:59:00,91.0,67.9,29.80,West,270,2.0,10.0,47,0.00,,,0.00,Weather View 32 v70,2013-06-24 20:59:00,
2013-06-24 17:05:00,91.0,67.9,29.80,WNW,292,2.0,10.0,47,0.00,,,0.00,Weather View 32 v70,2013-06-24 21:05:00,
2013-06-24 17:10:00,92.0,69.4,29.79,WSW,247,2.0,10.0,48,0.00,,,0.00,Weather View 32 v70,2013-06-24 21:10:00,
2013-06-24 17:15:00,91.0,69.1,29.79,South,180,3.0,10.0,49,0.00,,,0.00,Weather View 32 v70,2013-06-24 21:15:00,
2013-06-24 17:20:00,91.0,70.3,29.79,SSE,157,1.0,10.0,51,0.00,,,0.00,Weather View 32 v70,2013-06-24 21:20:00,
2013-06-24 17:29:00,91.0,70.8,29.79,South,180,1.0,7.0,52,0.00,,,0.00,Weather View 32 v70,2013-06-24 21:29:00,
2013-06-24 17:34:00,91.0,70.8,29.78,SW,225,0.0,7.0,52,0.00,,,0.00,Weather View 32 v70,2013-06-24 21:34:00,
2013-06-24 17:40:00,91.0,70.8,29.78,SE,135,0.0,7.0,52,0.00,,,0.00,Weather View 32 v70,2013-06-24 21:40:00,
2013-06-24 17:45:00,90.0,69.9,29.78,SSW,202,3.0,7.0,52,0.00,,,0.00,Weather View 32 v70,2013-06-24 21:45:00,
2013-06-24 17:50:00,89.0,67.9,29.80,WNW,292,1.0,7.0,50,0.00,,,0.00,Weather View 32 v70,2013-06-24 21:50:00,
2013-06-24 17:55:00,89.0,69.0,29.80,SW,225,1.0,10.0,52,0.00,,,0.00,Weather View 32 v70,2013-06-24 21:55:00,
2013-06-24 18:00:00,88.0,66.4,29.81,WNW,292,4.0,10.0,49,0.00,,,0.00,Weather View 32 v70,2013-06-24 22:00:00,
2013-06-24 18:06:00,87.0,66.6,29.81,West,270,0.0,10.0,51,0.00,,,0.00,Weather View 32 v70,2013-06-24 22:06:00,
2013-06-24 18:11:00,87.0,67.7,29.82,WNW,292,0.0,10.0,53,0.00,,,0.00,Weather View 32 v70,2013-06-24 22:11:00,
2013-06-24 18:16:00,87.0,67.7,29.82,NNW,337,2.0,10.0,53,0.00,,,0.00,Weather View 32 v70,2013-06-24 22:16:00,
2013-06-24 18:21:00,85.0,65.3,29.84,West,270,12.0,12.0,52,0.00,,,0.00,Weather View 32 v70,2013-06-24 22:21:00,
2013-06-24 18:26:00,84.0,64.4,29.84,WSW,247,2.0,17.0,52,0.00,,,0.00,Weather View 32 v70,2013-06-24 22:26:00,
2013-06-24 18:31:00,83.0,64.6,29.86,West,270,4.0,17.0,54,0.00,,,0.00,Weather View 32 v70,2013-06-24 22:31:00,
2013-06-24 18:36:00,82.0,64.7,29.86,WSW,247,1.0,17.0,56,0.00,,,0.00,Weather View 32 v70,2013-06-24 22:36:00,
2013-06-24 18:41:00,81.0,63.8,29.87,NW,315,0.0,17.0,56,0.00,,,0.00,Weather View 32 v70,2013-06-24 22:41:00,
2013-06-24 18:46:00,80.0,64.3,29.87,West,270,6.0,17.0,59,0.00,,,0.00,Weather View 32 v70,2013-06-24 22:46:00,
2013-06-24 18:51:00,79.0,63.9,29.89,SW,225,2.0,17.0,60,0.00,,,0.00,Weather View 32 v70,2013-06-24 22:51:00,
2013-06-24 18:56:00,78.0,63.4,29.89,WNW,292,9.0,17.0,61,0.00,,,0.00,Weather View 32 v70,2013-06-24 22:56:00,
2013-06-24 19:02:00,77.0,63.8,29.90,WNW,292,11.0,17.0,64,0.00,,,0.00,Weather View 32 v70,2013-06-24 23:02:00,
2013-06-24 19:07:00,77.0,65.2,29.90,WNW,292,4.0,17.0,67,0.00,,,0.00,Weather View 32 v70,2013-06-24 23:07:00,
2013-06-24 19:12:00,76.0,66.7,29.89,West,270,1.0,17.0,73,0.00,,,0.00,Weather View 32 v70,2013-06-24 23:12:00,
2013-06-24 19:17:00,75.0,66.5,29.89,SW,225,3.0,17.0,75,0.00,,,0.00,Weather View 32 v70,2013-06-24 23:17:00,
2013-06-24 19:22:00,75.0,66.5,29.91,SW,225,3.0,17.0,75,0.00,,,0.00,Weather View 32 v70,2013-06-24 23:22:00,
2013-06-24 19:27:00,74.0,65.5,29.91,NE,45,4.0,14.0,75,0.00,,,0.00,Weather View 32 v70,2013-06-24 23:27:00,
2013-06-24 19:33:00,74.0,66.7,29.92,WSW,247,5.0,14.0,78,0.00,,,0.00,Weather View 32 v70,2013-06-24 23:33:00,
2013-06-24 19:38:00,74.0,66.7,29.92,SW,225,0.0,14.0,78,0.00,,,0.00,Weather View 32 v70,2013-06-24 23:38:00,
2013-06-24 19:43:00,74.0,67.4,29.92,WNW,292,2.0,12.0,80,0.00,,,0.00,Weather View 32 v70,2013-06-24 23:43:00,
2013-06-24 19:48:00,73.0,66.4,29.92,West,270,3.0,12.0,80,0.00,,,0.00,Weather View 32 v70,2013-06-24 23:48:00,
2013-06-24 19:53:00,73.0,67.2,29.93,NW,315,1.0,12.0,82,0.00,,,0.00,Weather View 32 v70,2013-06-24 23:53:00,
2013-06-24 19:58:00,72.0,66.2,29.93,NW,315,1.0,12.0,82,0.00,,,0.00,Weather View 32 v70,2013-06-24 23:58:00,
2013-06-24 20:03:00,72.0,66.9,29.93,NW,315,0.0,10.0,84,0.00,,,0.00,Weather View 32 v70,2013-06-25 00:03:00,
2013-06-24 20:08:00,72.0,66.5,29.93,NW,315,4.0,10.0,83,0.00,,,0.00,Weather View 32 v70,2013-06-25 00:08:00,
2013-06-24 20:13:00,72.0,66.2,29.95,NW,315,4.0,11.0,82,0.00,,,0.00,Weather View 32 v70,2013-06-25 00:13:00,
2013-06-24 20:19:00,73.0,66.1,29.95,WNW,292,6.0,15.0,79,0.01,,,0.01,Weather View 32 v70,2013-06-25 00:19:00,
2013-06-24 20:25:00,73.0,65.7,29.96,North,360,1.0,15.0,78,0.01,,,0.01,Weather View 32 v70,2013-06-25 00:25:00,
2013-06-24 20:30:00,73.0,66.4,29.96,NW,315,7.0,15.0,80,0.01,,,0.01,Weather View 32 v70,2013-06-25 00:30:00,
2013-06-24 20:35:00,73.0,66.1,29.97,WNW,292,6.0,15.0,79,0.01,,,0.01,Weather View 32 v70,2013-06-25 00:35:00,
2013-06-24 20:40:00,73.0,65.7,29.97,WSW,247,2.0,15.0,78,0.01,,,0.01,Weather View 32 v70,2013-06-25 00:40:00,
2013-06-24 20:46:00,73.0,66.1,29.97,WNW,292,1.0,15.0,79,0.01,,,0.01,Weather View 32 v70,2013-06-25 00:46:00,
2013-06-24 20:51:00,73.0,66.1,29.98,West,270,1.0,15.0,79,0.01,,,0.01,Weather View 32 v70,2013-06-25 00:51:00,
2013-06-24 20:57:00,73.0,66.1,29.98,WNW,292,4.0,15.0,79,0.01,,,0.01,Weather View 32 v70,2013-06-25 00:57:00,
2013-06-24 21:02:00,73.0,66.1,29.97,NW,315,2.0,15.0,79,0.01,,,0.01,Weather View 32 v70,2013-06-25 01:02:00,
2013-06-24 21:08:00,73.0,66.1,29.97,West,270,0.0,15.0,79,0.01,,,0.01,Weather View 32 v70,2013-06-25 01:08:00,
2013-06-24 21:13:00,73.0,66.4,29.97,WNW,292,5.0,15.0,80,0.01,,,0.01,Weather View 32 v70,2013-06-25 01:13:00,
2013-06-24 21:18:00,73.0,66.4,29.97,West,270,6.0,14.0,80,0.00,,,0.01,Weather View 32 v70,2013-06-25 01:18:00,
2013-06-24 21:23:00,73.0,66.8,29.97,West,270,4.0,9.0,81,0.00,,,0.01,Weather View 32 v70,2013-06-25 01:23:00,
2013-06-24 21:29:00,72.0,66.2,29.97,West,270,1.0,9.0,82,0.00,,,0.01,Weather View 32 v70,2013-06-25 01:29:00,
2013-06-24 21:34:00,72.0,66.5,29.96,West,270,4.0,9.0,83,0.00,,,0.01,Weather View 32 v70,2013-06-25 01:34:00,
2013-06-24 21:39:00,72.0,67.2,29.96,WNW,292,0.0,9.0,85,0.00,,,0.01,Weather View 32 v70,2013-06-25 01:39:00,
2013-06-24 21:44:00,71.0,66.6,29.95,WNW,292,0.0,9.0,86,0.00,,,0.01,Weather View 32 v70,2013-06-25 01:44:00,
2013-06-24 21:50:00,71.0,66.9,29.95,WNW,292,0.0,9.0,87,0.00,,,0.01,Weather View 32 v70,2013-06-25 01:50:00,
2013-06-24 21:55:00,70.0,66.6,29.95,WNW,292,0.0,9.0,89,0.00,,,0.01,Weather View 32 v70,2013-06-25 01:55:00,
2013-06-24 22:00:00,70.0,66.6,29.95,WNW,292,0.0,9.0,89,0.00,,,0.01,Weather View 32 v70,2013-06-25 02:00:00,
2013-06-24 22:05:00,70.0,67.2,29.95,WNW,292,0.0,9.0,91,0.00,,,0.01,Weather View 32 v70,2013-06-25 02:05:00,
2013-06-24 22:10:00,70.0,67.6,29.95,South,180,2.0,9.0,92,0.00,,,0.01,Weather View 32 v70,2013-06-25 02:10:00,
2013-06-24 22:15:00,70.0,67.6,29.93,NW,315,1.0,9.0,92,0.00,,,0.01,Weather View 32 v70,2013-06-25 02:15:00,
2013-06-24 22:20:00,69.0,66.6,29.93,NE,45,1.0,9.0,92,0.00,,,0.01,Weather View 32 v70,2013-06-25 02:20:00,
2013-06-24 22:25:00,69.0,66.3,29.92,East,90,0.0,9.0,91,0.00,,,0.01,Weather View 32 v70,2013-06-25 02:25:00,
2013-06-24 22:30:00,70.0,67.2,29.92,WNW,292,2.0,7.0,91,0.00,,,0.01,Weather View 32 v70,2013-06-25 02:30:00,
2013-06-24 22:35:00,69.0,66.3,29.92,NW,315,0.0,6.0,91,0.00,,,0.01,Weather View 32 v70,2013-06-25 02:35:00,
2013-06-24 22:40:00,69.0,66.3,29.92,NW,315,0.0,6.0,91,0.00,,,0.01,Weather View 32 v70,2013-06-25 02:40:00,
2013-06-24 22:46:00,69.0,66.9,29.92,NW,315,0.0,4.0,93,0.00,,,0.01,Weather View 32 v70,2013-06-25 02:46:00,
2013-06-24 22:51:00,69.0,66.9,29.95,West,270,0.0,4.0,93,0.00,,,0.01,Weather View 32 v70,2013-06-25 02:51:00,
2013-06-24 22:57:00,69.0,66.9,29.95,WNW,292,2.0,4.0,93,0.00,,,0.01,Weather View 32 v70,2013-06-25 02:57:00,
2013-06-24 23:02:00,69.0,66.9,29.94,WNW,292,3.0,5.0,93,0.00,,,0.01,Weather View 32 v70,2013-06-25 03:02:00,
2013-06-24 23:07:00,69.0,66.9,29.94,West,270,2.0,5.0,93,0.00,,,0.01,Weather View 32 v70,2013-06-25 03:07:00,
2013-06-24 23:12:00,69.0,66.9,29.95,West,270,0.0,5.0,93,0.00,,,0.01,Weather View 32 v70,2013-06-25 03:12:00,
2013-06-24 23:18:00,69.0,67.2,29.95,West,270,0.0,5.0,94,0.00,,,0.01,Weather View 32 v70,2013-06-25 03:18:00,
2013-06-24 23:23:00,68.0,65.9,29.95,West,270,0.0,5.0,93,0.00,,,0.01,Weather View 32 v70,2013-06-25 03:23:00,
2013-06-24 23:28:00,68.0,65.9,29.95,West,270,0.0,5.0,93,0.00,,,0.01,Weather View 32 v70,2013-06-25 03:28:00,
2013-06-24 23:33:00,68.0,65.9,29.96,West,270,0.0,5.0,93,0.00,,,0.01,Weather View 32 v70,2013-06-25 03:33:00,
2013-06-24 23:38:00,68.0,66.2,29.96,West,270,0.0,5.0,94,0.00,,,0.01,Weather View 32 v70,2013-06-25 03:38:00,
2013-06-24 23:43:00,68.0,66.2,29.97,WNW,292,0.0,6.0,94,0.00,,,0.01,Weather View 32 v70,2013-06-25 03:43:00,
2013-06-24 23:48:00,68.0,66.2,29.97,West,270,1.0,6.0,94,0.00,,,0.01,Weather View 32 v70,2013-06-25 03:48:00,
2013-06-24 23:54:00,68.0,66.5,29.97,West,270,6.0,10.0,95,0.01,,,0.02,Weather View 32 v70,2013-06-25 03:54:00,